Regional Weather Roundup
Issued by NWS Tiyan, Guam

Home | Current Version | Previous Version | Text Only | Print | Product List | Glossary On
Versions: 1 2 3 4 5 6 7 8 9 10 11 12 13 14 15 16 17 18 19 20 21 22 23 24 25 26 27
000
ASGM40 PGUM 110212
RWRGUM
WEATHER ROUNDUP FOR THE MARIANAS
NATIONAL WEATHER SERVICE TIYAN GU
1200 PM CHST MON DEC 11 2017

GUZ001>004-110300-
MARIANA ISLANDS-

CITY           SKY/WX    TMP DP  RH WIND       PRES   REMARKS
GUAM AIRPORT   MOSUNNY   86  81  84 E13       29.84F HX 102
ANDERSEN AFB   PTSUNNY   84  79  84 E14       29.85F HX  96
ROTA AIRPORT   MOSUNNY   84  77  79 E14       29.85F HX  94
TINIAN AP      PTSUNNY   82  79  89 E10       29.84F HX  93
SAIPAN AP      PTSUNNY   86  79  79 SE15      29.85F HX  99

$$





USA.gov is the U.S. government's official web portal to all federal, state and local government web resources and services.